Location: Unspecified
(0.0000°N, 0.0000°E)
Time: 19:35:50
(UTC+00:00)

Vanguard 3 - Pass Details

Date: 03 October 2023
Orbit: 507 x 3241 km, 33.3° (Epoch: 29 November)

Event Time Altitude Azimuth Distance (km) Brightness Sun altitude
Rises 15:31:11 0° 258° (WSW) 7,146 13.0 34.4°
Reaches altitude 10° 15:36:43 10° 266° (W) 6,175 13.1 33.0°
Maximum altitude 15:53:32 35° 324° (NW) 3,983 11.3 28.8°
Drops below altitude 10° 16:06:28 10° 26° (NNE) 4,728 10.8 25.6°
Sets 16:10:06 0° 36° (NE) 5,365 11.0 24.7°
